User: anonymous   Login
Location: Unspecified
(0.0000°N, 0.0000°E)
Time: 16:39:21
(UTC+00:00)
Language:

Courier 1B - Orbit

View from above orbital plane
View from above orbital plane
View from above satellite
View from above satellite

Ground track
Ground track

The orbit data is extracted from the following two-line orbital elements,

1    58U 60013A   18169.49312280 +.00000084 +00000-0 -34516-5 0  9994
2    58 028.3255 197.8837 0165014 145.8542 215.2739 13.46314018840179
Epoch (UTC): 18 June 2018 11:50:05
Eccentricity: 0.0165014
inclination: 28.3255°
perigee height: 962 km
apogee height: 1209 km
right ascension of ascending node: 197.8837°
argument of perigee: 145.8542°
revolutions per day: 13.46314018
mean anomaly at epoch: 215.2739°
orbit number at epoch: 84017

The dashed part of the orbit path shows where the satellite is in the earth's shadow,  

DLR